Flag for Russia Weather past 2 weeks in Krasnodar, Russia

Now
55 °F

Sunny.


Feels Like: 53 °F
Forecast: 52 / 62 °F
Wind: 8 mph from Southeast

Location: Krasnodar Airport

Current Time: Mar 27, 2015 at 10:38:42 AM

Latest Report: Mar 27, 2015 at 10:00 AM


Visibility: 10 mi

Pressure: 30.04 "Hg

Humidity: 59%

Dew point: 41 °F

Location of KrasnodarLocation

Historic Weather in Krasnodar — Graph

°F

Krasnodar temperature yesterday

Maximum temperature yesterday: 70 °F (at 4:00 PM)
Minimum temperature yesterday: 32 °F (at 6:30 AM)
Average temperature yesterday: 53 °F

Past Weeks' High & Low Weather Summary

 TemperatureHumidityPressure
High70 °F (Mar 26, 4:00 PM)100% (Mar 14, 4:30 AM)30.39 "Hg (Mar 14, 4:30 AM)
Low28 °F (Mar 25, 6:00 AM)23% (Mar 26, 4:00 PM)29.77 "Hg (Mar 12, 10:30 PM)
Average45 °F74%30.14 "Hg
* Reported Mar 12 9:00 AM — Mar 27 9:30 AM, Krasnodar, Weather by CustomWeather, © 2015

Note: Actual official high and low records may vary slightly from our data, if they occured in-between our weather recording intervals... More about our weather records

Advertising

Krasnodar weather history for previous 24 hours

 ConditionsComfort  
Time TempWeatherWind HumidityBarometerVisibility
9:30 AM
Fri, Mar 27
52 °FSunny.8 mph62%30.04 "Hg10 mi
9:00 AM50 °FSunny.6 mph67%30.07 "Hg10 mi
8:30 AM48 °FSunny.8 mph66%30.07 "Hg10 mi
8:00 AM48 °FSunny.8 mph66%30.07 "Hg10 mi
7:30 AM45 °FSunny.8 mph76%30.07 "Hg10 mi
7:00 AM45 °FClear.8 mph76%30.07 "Hg10 mi
6:00 AM43 °FClear.6 mph76%30.07 "Hg10 mi
5:30 AM41 °FClear.6 mph81%30.07 "Hg10 mi
5:00 AM41 °FPassing clouds.3 mph81%30.07 "HgN/A
4:30 AM41 °FPassing clouds.3 mph76%30.07 "HgN/A
4:00 AM43 °FClear.8 mph71%30.07 "Hg10 mi
3:30 AM45 °FClear.3 mph66%30.07 "Hg10 mi
3:00 AM43 °FClear.3 mph71%30.07 "Hg10 mi
2:30 AM43 °FClear.3 mph76%30.07 "Hg10 mi
2:00 AM45 °FClear.8 mph66%30.09 "Hg10 mi
1:30 AM48 °FClear.6 mph58%30.09 "Hg10 mi
1:00 AM50 °FClear.8 mph54%30.09 "Hg10 mi
12:30 AM50 °FClear.6 mph58%30.09 "Hg10 mi
11:30 PM
Thu, Mar 26
54 °FClear.10 mph47%30.09 "Hg10 mi
11:00 PM54 °FClear.8 mph51%30.12 "Hg10 mi
10:30 PM54 °FClear.8 mph51%30.12 "Hg10 mi
10:00 PM55 °FClear.8 mph47%30.12 "Hg10 mi
9:30 PM55 °FClear.6 mph51%30.12 "Hg10 mi
9:00 PM57 °FPassing clouds.8 mph48%30.15 "Hg6 mi
8:30 PM55 °FPassing clouds.6 mph55%30.15 "Hg6 mi
8:00 PM55 °FClear.3 mph55%30.15 "Hg10 mi
7:30 PM59 °FSunny.3 mph45%30.15 "Hg10 mi
7:00 PM63 °FSunny.3 mph34%30.15 "Hg10 mi
6:30 PM64 °FSunny.1 mph34%30.15 "Hg10 mi
6:00 PM68 °FSunny.1 mph28%30.15 "Hg10 mi
5:30 PM68 °FPassing clouds.3 mph30%30.15 "HgN/A
5:00 PM68 °FSunny.1 mph30%30.15 "Hg10 mi
4:30 PM70 °FSunny.1 mph27%30.15 "Hg10 mi
4:00 PM70 °FPassing clouds.6 mph23%30.15 "HgN/A
3:30 PM68 °FPassing clouds.3 mph28%30.15 "HgN/A
3:00 PM68 °FPassing clouds.3 mph33%30.15 "HgN/A
2:30 PM68 °FSunny.3 mph33%30.15 "Hg10 mi
2:00 PM68 °FPassing clouds.3 mph38%30.18 "HgN/A
1:30 PM66 °FPassing clouds.3 mph43%30.18 "HgN/A
1:00 PM64 °FSunny.1 mph40%30.21 "Hg10 mi
12:30 PM64 °FSunny.1 mph43%30.21 "Hg10 mi
12:00 PM63 °FPassing clouds.3 mph45%30.21 "HgN/A
11:30 AM61 °FSunny.1 mph48%30.21 "Hg10 mi
11:00 AM59 °FSunny.1 mph51%30.24 "Hg10 mi
10:30 AM59 °FPassing clouds.3 mph51%30.24 "HgN/A
10:00 AM57 °FSunny.1 mph63%30.24 "Hg10 mi
Weather by CustomWeather, © 2015

See weather overviewHow to use our weather pages